LVÄ¢MC has had to rebuild their home page, so image address has changed. If anyone knows an actual URL to SRI image, please let me know to beigas at gmail.com.
For newest METAR data use Cloud coverage page


Latest  Newer  Older  Last 2 hours animation  Current image  Latest image  Summary per 24h (testing)  Summary per 7d (testing) 
Cloud coverage sat images  Infrared sat images 
Real-time lightning map Aurora Forecast

All time is UTC (add 2 hours in wintertime, 3 hours in DST for Latvia local time)

2022/09/26 12:50 EVRA 261250Z 16011KT 130V190 9999 SCT033 16/08 Q1006 NOSIG
2022/09/26 12:50 EVGA 261250Z 16007KT 130V190 9999 FEW036 15/07 Q1007 NOSIG
2022/09/26 12:50 EVLA 261250Z AUTO 17007KT 130V210 CAVOK 14/09 Q1004
2022/09/26 12:50 EVVA 261250Z AUTO 17010KT 140V200 CAVOK 16/09 Q1003
2022/09/26 12:50 EYKA 261250Z 16006KT 130V210 9999 SCT049 17/06 Q1006
2022/09/26 12:50 EYPA 261250Z 17010KT 9999 BKN046 14/09 Q1004
2022/09/26 12:50 EYSA 261250Z 17010KT 9999 FEW043 16/07 Q1006 NOSIG
2022/09/26 12:50 EYVI 261250Z 14007KT 110V180 9999 BKN042 16/05 Q1007 NOSIG
2022/09/26 12:50 EEEI 261250Z 18009KT 150V210 9999 FEW028 BKN036 15/06 Q1006 NOSIG
2022/09/26 12:50 EEKA 261250Z 14011KT 120V180 9999 FEW023 15/08 Q1005
2022/09/26 12:50 EEKE 261250Z AUTO 15013KT 9999NDV NSC 15/10 Q1004
2022/09/26 12:50 EEPU 261250Z AUTO 17005KT 130V200 9999 FEW037/// 15/08 Q1007
2022/09/26 12:50 EETN 261250Z 15009KT 9999 FEW033 14/06 Q1007 NOSIG
2022/09/26 12:50 EETU 261250Z 12005KT 070V160 9999 FEW047 13/05 Q1008
CD  STATION         ICAO  IATA  SYNOP   LAT     LONG   ELEV   M  N  V  U  A  C
   RIGA AIRPORT     EVRA               56 55N  023 58E   10   X     T          6 LV
   LIELVARDE        EVGA               56 47N  024 51E   61   X     T          7 LV
   LIEPAJA INTL     EVLA        26406  56 31N  021 06E    4   X                8 LV
   VENTPILS         EVVA               57 21N  021 33E    6   X                8 LV
   KAUNAS           EYKA               54 54N  023 55E   77   X     T          6 LT
   PALANGA INTL     EYPA               55 55N  021 03E   10   X                6 LT
   SIAULIAI INTL    EYSA               55 54N  023 24E  135   X     T          6 LT
   VILNIUS INTL     EYVI        26730  54 38N  025 17E  197   X     T          6 LT
   AMARI AIR BASE   EEEI               59 16N  024 12E   19   X     T          7 EE
   KARDLA           EEKA        26116  58 59N  022 50E    4   X                8 EE
   KURESSAARE       EEKE               58 14N  022 31E    4   X                8 EE
   PARNU            EEPU               58 25N  024 28E   14   X                8 EE
   TALLINN          EETN        26038  59 24N  024 49E   40   X     T          8 EE
   TARTU            EETU               58 19N  026 41E   67   X                8 EE

!   CD = 2 letter state (province) abbreviation
!   STATION = 16 character station long name
!   ICAO = 4-character international id
!   IATA = 3-character (FAA) id
!   SYNOP = 5-digit international synoptic number
!   LAT = Latitude (degrees minutes)
!   LON = Longitude (degree minutes)
!   ELEV = Station elevation (meters)
!   M = METAR reporting station.   Also Z=obsolete? site
!   N = NEXRAD (WSR-88D) Radar site
!   V = Aviation-specific flag (V=AIRMET/SIGMET end point, A=ARTCC T=TAF U=T+V)
!   U = Upper air (rawinsonde=X) or Wind Profiler (W) site
!   A = Auto (A=ASOS, W=AWOS, M=Meso, H=Human, G=Augmented) (H/G not yet impl.)
!   C = Office type F=WFO/R=RFC/C=NCEP Center
!   Digit that follows is a priority for plotting (0=highest)
!   Country code (2-char) is last column


rain/snow radar image from www.meteo.lv and METAR data from weather.noaa.gov